Temperature
20 19 19 19 19 19 19 19 19 19 19 18 18 18 19 19 19 19 19 18 19 19 19 19 19 19 18 18 18 18 18 18 18 18 18 18 18 18 18 18 18 18 18
20 19 19 19 19 19 19 19 19 19 18 18 18 19 19 19 18 18 18 19 19 19 19 19 19 18 18 18 18 18 18 18 18 18 18 18 18 18 18 18 18 18 18
20 19 19 19 19 19 19 19 19 18 18 18 18 18 18 18 18 18 18 18 18 18 19 18 18 18 18 18 18 18 18 18 18 18 18 18 18 18 18 18 18 18 18
20 19 19 19 19 19 19 19 18 18 18 18 18 18 18 18 18 18 18 18 18 18 18 18 18 18 18 18 18 18 18 18 18 18 18 18 18 18 18 18 18 17 17
20 19 19 19 19 19 19 19 18 18 18 18 18 18 18 18 18 18 18 18 18 18 18 18 18 18 18 18 18 18 18 18 18 18 18 18 18 18 17 17 17 17 17
20 19 19 19 19 19 18 18 18 18 18 18 18 18 18 18 18 18 18 18 18 18 18 18 18 18 18 18 18 18 18 18 18 18 18 18 18 18 17 17 17 17 17
20 19 19 19 19 19 19 18 18 18 18 18 18 18 18 18 18 18 18 18 18 18 18 18 18 18 18 18 18 18 18 18 18 18 18 18 18 18 17 17 17 17 17
20 19 19 19 19 19 18 18 18 18 18 18 18 18 18 18 18 18 18 18 18 18 18 18 18 18 18 18 18 18 18 18 18 18 18 18 18 17 17 17 17 17 17
20 19 19 19 19 19 19 18 18 18 18 18 18 18 18 18 18 18 18 18 18 18 18 18 18 18 18 18 18 18 18 18 18 17 18 18 17 17 17 17 17 17 17
20 19 19 19 19 19 19 19 19 19 18 18 18 18 18 18 18 18 18 18 18 18 18 18 18 18 18 18 18 18 18 17 18 18 17 17 17 17 17 17 17 17 17
19 19 19 19 19 19 19 18 19 19 18 18 18 18 18 18 18 18 18 18 18 18 18 18 18 18 18 18 18 18 18 18 18 17 17 17 17 17 17 17 17 17 17
19 19 19 19 19 19 19 18 18 18 18 18 18 18 18 18 18 18 18 18 18 18 18 18 18 18 18 18 18 18 18 18 18 18 18 18 17 17 17 17 17 17 17
20 19 19 19 19 19 19 18 18 18 18 18 18 18 18 18 18 18 18 18 18 18 18 18 18 18 18 18 18 18 18 18 17 18 18 18 17 17 17 17 17 17 17
20 19 19 19 19 19 19 18 18 18 18 18 18 18 18 18 18 18 18 18 18 18 18 18 18 18 18 18 18 18 18 18 17 18 18 17 17 17 17 17 17 17 17
20 20 19 19 19 19 19 19 18 18 18 18 18 18 18 18 18 18 18 18 18 18 18 18 18 18 18 18 18 18 18 18 17 18 18 17 17 17 17 17 17 17 17
20 20 20 19 19 19 19 18 18 18 18 18 18 18 18 18 18 18 18 18 18 18 18 18 18 18 18 18 18 18 18 18 18 18 18 17 17 17 17 17 17 17 17
20 20 20 19 19 19 19 18 18 18 18 18 18 18 18 18 18 18 18 18 18 18 18 18 18 18 18 18 18 18 18 18 18 18 18 18 17 17 17 17 17 17 17
20 20 20 19 19 19 19 19 18 18 18 18 18 18 18 18 18 18 18 18 18 18 18 18 18 18 18 18 18 18 18 18 18 18 18 18 18 17 17 17 17 17 17
20 20 20 20 19 19 19 19 18 18 18 18 18 18 18 18 18 18 18 18 18 18 18 18 18 18 18 18 18 18 18 18 18 18 18 18 18 17 17 17 17 17 17
20 20 20 20 19 19 19 19 19 18 18 18 18 18 18 18 18 18 18 18 18 18 18 18 18 18 18 18 18 18 18 18 18 18 18 18 18 17 17 17 17 17 17
20 20 20 20 20 19 19 19 19 19 19 18 18 18 18 18 18 18 18 18 18 18 18 18 18 18 18 18 18 18 18 18 18 18 18 18 18 17 17 17 17 17 17
21 21 20 20 20 20 19 19 19 19 19 18 18 18 18 18 18 18 18 18 18 18 18 18 18 18 18 17 17 17 17 17 18 18 18 18 18 17 17 17 17 17 17
21 21 20 20 20 20 20 19 19 19 19 19 19 18 18 18 18 18 18 18 18 18 18 18 18 18 17 17 17 17 17 17 17 17 17 17 17 17 17 17 17 17 17
21 21 20 20 20 20 20 19 19 19 19 19 18 18 18 18 18 18 18 18 18 18 18 18 18 18 17 17 17 17 17 17 17 17 17 17 17 17 17 17 17 17 17
21 21 20 20 20 20 20 19 19 19 19 19 19 18 18 18 18 18 18 18 18 18 18 18 17 17 17 17 17 17 17 17 17 17 17 17 17 17 17 17 17 16 16
21 21 20 20 20 20 20 20 19 19 19 19 19 18 18 18 18 18 18 18 17 17 17 17 17 17 17 17 17 17 17 17 17 17 16 16 17 17 16 16 16 16 16
Wind_Speed
2 3 5 4 4 4 4 5 6 6 7 7 8 8 9 9 9 9 9 9 8 8 8 7 8 8 9 10 11 11 12 12 12 11 11 10 10 9 9 9 10 9 10
2 3 5 4 4 3 4 5 5 6 6 7 8 8 8 9 9 9 9 8 8 8 8 8 8 8 8 9 10 10 11 11 11 10 10 9 10 9 9 9 9 8 10
2 2 4 4 3 3 3 4 5 6 7 7 8 7 8 8 9 8 8 8 8 8 8 8 7 7 7 7 8 10 10 11 10 10 9 7 7 8 9 9 9 9 10
2 2 2 3 3 3 4 4 5 5 6 7 7 7 8 8 8 8 8 7 7 7 7 7 7 6 6 6 7 8 9 10 10 9 6 6 6 7 8 9 9 9 10
2 2 2 3 3 3 4 4 4 5 5 6 7 7 7 7 7 7 7 7 7 6 6 6 6 6 6 6 6 7 9 10 9 7 5 5 4 7 8 9 9 9 9
1 2 2 2 3 3 3 3 3 4 5 5 6 6 7 6 6 6 5 5 6 6 5 5 4 4 5 6 6 7 8 9 7 5 5 4 3 6 7 8 8 8 8
1 1 1 2 2 2 3 3 2 3 5 5 5 5 6 6 5 5 5 5 5 5 5 5 4 3 4 6 6 7 8 7 6 5 4 3 4 5 6 8 8 9 8
1 0 0 1 2 2 2 2 1 2 4 5 5 5 5 4 4 4 4 5 5 5 5 4 4 4 4 6 6 7 7 7 5 5 4 4 6 6 6 8 9 9 9
2 2 2 1 1 2 2 2 2 3 4 5 5 5 4 3 3 3 4 5 5 4 4 3 4 4 5 5 5 6 6 6 5 4 4 4 6 6 6 8 9 8 8
4 4 3 2 2 2 2 4 4 3 4 5 5 4 4 3 2 3 3 4 4 3 3 3 2 3 4 4 4 4 5 4 4 4 4 5 6 7 6 7 8 8 8
4 4 4 3 3 3 2 4 5 4 4 4 4 4 3 2 2 2 2 2 2 2 2 1 1 2 3 3 3 4 4 3 3 4 4 5 6 7 7 7 7 8 8
2 3 3 3 3 3 3 3 4 4 5 4 4 3 3 3 2 2 1 1 1 1 1 2 3 3 3 3 2 2 2 3 3 3 5 6 6 6 6 6 6 7 8
0 1 2 2 3 3 2 3 3 3 4 4 3 3 3 3 3 3 2 2 3 3 3 2 2 2 2 2 1 1 2 2 2 3 4 6 6 6 6 6 7 7 7
1 1 1 2 3 3 2 2 2 2 2 2 2 2 2 2 3 2 2 2 2 2 2 2 1 2 2 2 2 2 2 2 2 2 4 6 6 6 6 6 7 7 8
1 1 1 2 2 2 2 2 2 2 2 1 2 2 2 2 2 2 2 2 2 2 2 1 1 1 2 2 2 2 2 2 2 3 3 5 5 6 6 6 6 7 7
1 1 1 2 2 2 2 2 2 1 1 1 1 2 2 1 2 2 2 2 2 2 1 1 1 1 2 2 2 1 1 1 2 2 2 3 4 5 5 6 6 6 6
2 1 1 2 2 2 2 2 2 1 1 1 1 1 2 1 2 2 2 2 2 2 2 2 2 2 2 2 2 1 1 1 1 2 2 2 2 4 4 4 5 5 6
2 1 1 2 3 2 2 2 2 2 2 1 1 2 2 2 2 2 2 1 1 2 2 1 2 2 2 2 2 2 1 0 0 1 1 1 2 2 2 3 4 5 5
3 2 2 2 3 2 2 2 2 2 2 1 2 2 2 2 2 2 2 1 1 2 2 2 2 2 1 2 2 2 2 1 1 0 1 1 1 2 2 3 4 4 5
2 2 2 2 2 2 2 2 2 2 2 2 2 2 2 2 2 2 2 2 2 2 2 2 2 2 1 1 1 2 2 1 1 1 1 1 1 1 2 3 3 3 4
2 2 2 2 1 2 2 1 1 0 1 2 2 2 3 2 2 2 2 2 2 2 2 2 1 2 2 1 1 2 3 2 2 1 1 1 1 2 2 2 2 3 3
4 3 2 2 1 1 1 1 1 1 0 1 1 2 2 2 2 2 2 2 2 2 2 2 2 1 1 2 1 1 2 3 2 2 1 1 1 1 1 2 2 2 2
4 4 4 3 2 2 2 2 2 2 2 2 2 2 2 2 2 2 2 2 2 2 1 1 2 2 1 1 1 1 1 1 2 2 2 1 1 1 1 1 1 2 2
5 4 3 3 2 2 3 3 3 2 1 1 1 1 2 3 2 2 2 2 1 1 1 0 1 1 1 0 1 1 1 2 1 2 2 2 2 2 2 2 1 1 1
4 4 3 3 2 3 3 3 3 2 1 0 1 2 2 3 3 2 2 2 2 1 1 1 1 1 1 1 0 0 0 1 1 1 2 3 3 2 2 2 1 1 2
4 3 3 3 3 3 3 3 4 3 2 1 1 1 1 2 2 3 2 2 1 1 1 1 1 1 1 1 1 1 1 1 1 1 2 2 3 3 2 2 1 2 2
Wind_Direction
240 225 203 197 198 188 176 167 162 161 159 154 151 151 152 150 149 150 150 153 155 155 152 148 151 153 154 154 156 158 156 157 159 160 162 161 161 164 165 163 161 160 158
192 190 192 195 200 189 170 162 161 158 158 155 151 152 154 150 147 145 148 155 159 155 151 146 148 155 155 158 162 162 161 159 161 161 161 163 165 167 165 164 166 161 166
137 171 185 187 184 168 154 149 156 155 152 152 152 155 153 151 148 148 149 154 158 155 152 148 146 152 153 161 168 167 165 162 162 161 159 154 162 169 171 172 172 170 170
136 153 177 169 159 150 149 149 149 148 148 151 154 157 153 149 149 148 149 152 155 154 154 155 153 154 155 159 164 170 168 162 160 159 148 148 161 174 178 179 175 177 177
129 162 193 158 150 141 142 144 144 146 149 151 150 154 152 150 152 151 152 154 152 153 157 158 157 158 163 165 161 166 169 163 161 152 139 143 158 178 183 181 178 178 180
136 178 194 154 144 133 133 133 144 151 152 153 154 155 152 154 157 157 155 153 152 156 161 162 160 162 168 170 169 157 157 161 155 144 140 145 162 184 183 180 181 182 182
141 170 185 151 149 140 130 132 148 158 151 150 148 147 150 154 157 157 156 155 156 159 160 160 166 172 178 169 163 161 160 157 149 143 150 161 177 190 196 195 188 183 182
107 16 136 136 120 118 121 116 99 139 150 144 139 140 149 154 156 156 165 167 163 164 163 167 175 174 166 167 166 165 161 164 157 156 167 182 191 197 196 193 184 178 179
51 25 12 50 97 92 88 76 69 120 132 134 134 137 139 144 142 135 151 163 164 163 164 168 177 177 174 173 174 167 165 166 156 167 184 191 192 198 194 191 181 177 178
40 26 18 34 49 63 66 58 56 98 113 122 128 126 124 114 100 108 128 154 164 173 174 166 172 170 168 170 168 162 158 161 169 182 194 202 201 205 201 188 185 185 183
36 17 23 39 39 41 48 45 44 69 90 100 103 97 80 58 54 85 110 145 164 181 179 149 136 133 133 130 139 150 148 162 180 191 196 207 211 211 203 196 192 189 191
26 16 27 39 44 42 47 47 45 49 63 69 69 59 52 47 40 59 63 75 91 91 103 89 83 104 102 104 123 136 147 167 184 193 199 204 207 205 202 197 191 195 201
297 38 40 40 52 52 42 53 53 49 58 62 55 46 56 49 41 37 32 35 35 43 43 47 49 71 95 112 116 135 151 163 189 198 200 202 204 204 208 206 206 206 209
111 57 56 63 61 50 55 55 56 53 56 50 33 43 62 54 43 37 36 35 35 40 50 50 50 70 92 110 138 143 135 152 182 190 200 196 203 208 213 214 212 212 214
109 102 78 81 82 71 63 50 59 54 54 40 19 28 68 76 56 44 36 32 31 41 53 56 58 61 75 82 107 121 132 153 174 189 200 199 205 216 223 224 222 220 217
177 168 106 87 91 87 79 70 51 55 47 37 20 20 49 82 71 58 46 34 25 33 51 69 79 73 71 74 74 82 116 146 177 189 213 224 220 228 238 235 230 235 234
192 178 144 125 93 95 93 82 72 57 71 51 9 27 56 78 79 72 64 43 27 41 58 63 59 63 73 68 54 50 68 117 169 192 211 230 239 229 233 241 238 245 245
164 161 153 111 99 97 86 74 60 53 54 40 23 34 53 66 86 85 70 45 42 58 65 65 58 60 53 47 35 13 19 12 198 192 188 203 220 231 237 244 245 250 249
171 153 120 93 103 107 94 81 66 57 44 35 36 31 42 57 84 96 76 59 64 64 53 56 59 70 53 32 31 22 11 350 322 261 182 194 213 233 247 254 253 252 252
154 137 118 101 88 93 88 76 61 48 26 28 36 30 45 63 85 105 93 70 74 70 53 49 53 53 55 18 27 22 8 357 358 337 285 259 241 251 255 265 272 266 259
144 137 140 122 103 96 87 99 84 25 9 16 13 20 33 44 63 88 80 68 71 79 75 72 65 59 38 31 46 11 9 24 21 357 343 338 301 273 253 251 255 257 267
172 171 168 167 149 136 144 144 140 126 60 22 2 16 28 41 47 80 81 79 76 80 65 67 78 66 31 41 74 48 2 354 0 13 8 336 308 304 286 258 240 235 243
189 191 190 188 168 147 127 100 78 53 33 25 21 13 9 34 45 62 88 95 87 99 101 78 96 105 69 21 59 115 117 282 318 334 349 352 330 317 302 284 258 249 248
208 196 191 183 167 162 142 133 129 127 134 290 345 6 6 23 39 49 70 87 80 91 112 129 111 113 130 65 23 79 169 176 213 319 328 336 331 317 307 309 288 258 268
200 194 196 186 183 177 163 160 155 152 167 43 34 27 18 16 28 36 56 68 58 53 50 59 76 94 140 164 186 184 142 95 148 196 299 324 333 322 315 303 303 296 290
195 192 189 188 206 192 174 168 168 169 160 124 59 32 10 14 19 25 52 49 33 27 27 52 76 103 121 141 143 151 159 157 200 193 240 292 310 314 318 303 303 301 301
Height
1492 1491 1490 1489 1488 1488 1488 1488 1488 1489 1489 1490 1491 1492 1494 1495 1497 1498 1499 1500 1501 1502 1503 1504 1504 1504 1505 1506 1508 1509 1511 1513 1516 1518 1520 1522 1524 1525 1527 1528 1530 1531 1532
1492 1491 1490 1489 1488 1487 1488 1488 1488 1489 1490 1491 1492 1493 1494 1495 1497 1498 1499 1500 1501 1502 1503 1503 1504 1505 1506 1507 1509 1510 1512 1514 1515 1517 1520 1521 1523 1525 1526 1528 1529 1530 1531
1492 1491 1490 1489 1488 1487 1488 1488 1488 1489 1490 1491 1492 1493 1494 1495 1496 1498 1499 1500 1501 1502 1503 1504 1504 1505 1507 1508 1509 1510 1512 1513 1515 1517 1519 1521 1522 1524 1525 1526 1528 1529 1530
1493 1492 1491 1489 1488 1487 1488 1488 1489 1489 1490 1491 1492 1493 1494 1495 1497 1498 1499 1500 1501 1502 1503 1504 1505 1506 1507 1508 1509 1510 1511 1513 1515 1517 1519 1520 1522 1523 1524 1525 1526 1528 1528
1494 1493 1492 1490 1489 1489 1489 1489 1489 1490 1490 1491 1492 1493 1495 1495 1496 1497 1499 1500 1501 1502 1503 1504 1505 1506 1507 1508 1509 1510 1511 1513 1515 1517 1518 1520 1521 1522 1523 1524 1526 1526 1527
1495 1494 1493 1491 1491 1490 1490 1490 1490 1490 1490 1491 1492 1494 1495 1496 1496 1497 1498 1499 1501 1502 1503 1504 1505 1506 1507 1508 1509 1510 1511 1513 1514 1516 1518 1519 1520 1521 1522 1523 1524 1525 1525
1497 1495 1494 1493 1493 1492 1492 1490 1490 1490 1490 1491 1492 1494 1495 1496 1496 1497 1497 1499 1500 1502 1503 1504 1505 1506 1507 1508 1508 1510 1512 1513 1514 1515 1517 1518 1519 1520 1520 1521 1522 1524 1525
1498 1497 1495 1495 1494 1493 1493 1491 1490 1489 1489 1491 1492 1494 1495 1496 1496 1496 1496 1497 1500 1502 1503 1505 1506 1506 1507 1508 1509 1511 1512 1513 1514 1515 1517 1518 1518 1518 1517 1516 1520 1522 1525
1500 1498 1497 1496 1496 1495 1494 1492 1490 1489 1489 1491 1493 1495 1496 1497 1497 1495 1495 1497 1500 1502 1504 1505 1506 1507 1508 1509 1510 1511 1512 1513 1514 1515 1516 1517 1518 1517 1515 1515 1518 1522 1524
1501 1499 1498 1497 1497 1496 1495 1493 1491 1490 1490 1492 1494 1496 1497 1498 1498 1497 1497 1499 1501 1503 1504 1506 1506 1507 1508 1509 1510 1511 1512 1513 1514 1515 1516 1517 1518 1518 1517 1517 1520 1522 1524
1503 1501 1500 1499 1499 1498 1497 1496 1494 1492 1492 1494 1496 1498 1499 1499 1500 1500 1500 1501 1503 1504 1505 1506 1507 1508 1508 1509 1510 1511 1512 1513 1514 1515 1515 1516 1517 1518 1519 1519 1521 1522 1524
1504 1503 1502 1501 1501 1500 1499 1498 1497 1496 1496 1497 1498 1500 1500 1501 1502 1502 1503 1503 1504 1505 1506 1506 1507 1508 1509 1509 1510 1511 1512 1513 1513 1514 1515 1516 1517 1518 1519 1520 1521 1522 1523
1507 1505 1504 1504 1503 1503 1502 1502 1501 1500 1500 1500 1501 1502 1503 1503 1504 1504 1504 1504 1505 1506 1506 1507 1508 1508 1509 1510 1511 1511 1512 1512 1513 1513 1514 1516 1517 1518 1519 1520 1521 1522 1523
1508 1507 1507 1506 1506 1505 1505 1505 1505 1504 1504 1504 1505 1505 1505 1505 1505 1506 1506 1506 1507 1507 1508 1508 1509 1509 1510 1510 1511 1512 1512 1512 1512 1512 1514 1515 1517 1518 1518 1519 1520 1521 1521
1510 1509 1509 1508 1508 1508 1508 1507 1507 1507 1507 1507 1507 1507 1507 1507 1507 1507 1508 1508 1508 1509 1509 1509 1510 1510 1510 1511 1512 1512 1512 1513 1513 1513 1514 1515 1516 1517 1518 1519 1519 1520 1520
1511 1511 1511 1510 1510 1510 1510 1510 1509 1509 1509 1509 1509 1509 1509 1509 1509 1509 1509 1510 1510 1510 1510 1510 1511 1511 1511 1512 1512 1512 1513 1513 1513 1513 1514 1515 1516 1516 1517 1518 1518 1519 1519
1513 1513 1512 1512 1512 1511 1511 1511 1511 1511 1511 1511 1511 1511 1511 1511 1511 1511 1511 1511 1511 1511 1511 1511 1512 1512 1512 1512 1512 1513 1513 1513 1513 1514 1514 1515 1515 1516 1516 1517 1517 1518 1518
1514 1514 1513 1513 1513 1513 1513 1513 1513 1513 1513 1513 1512 1512 1512 1512 1512 1512 1512 1512 1513 1512 1512 1512 1512 1512 1513 1513 1513 1513 1513 1513 1513 1514 1514 1514 1515 1515 1515 1516 1516 1517 1517
1515 1515 1514 1514 1514 1514 1514 1514 1514 1514 1514 1514 1514 1514 1514 1514 1514 1514 1514 1513 1513 1513 1513 1513 1513 1513 1513 1513 1513 1513 1513 1513 1513 1513 1514 1514 1514 1514 1515 1515 1515 1515 1515
1516 1515 1515 1515 1515 1515 1516 1515 1515 1515 1515 1515 1515 1515 1516 1515 1515 1515 1515 1514 1514 1514 1514 1514 1514 1514 1514 1514 1514 1513 1513 1513 1513 1513 1513 1514 1514 1514 1514 1514 1514 1514 1514
1516 1516 1516 1516 1516 1516 1516 1516 1516 1516 1516 1517 1517 1516 1516 1516 1516 1516 1515 1515 1515 1514 1514 1514 1514 1514 1514 1514 1514 1513 1513 1513 1513 1513 1513 1513 1513 1513 1513 1513 1513 1512 1512
1516 1516 1516 1516 1516 1517 1517 1517 1517 1517 1517 1517 1517 1517 1517 1516 1516 1516 1516 1515 1515 1515 1515 1515 1515 1515 1515 1514 1514 1514 1513 1514 1513 1513 1513 1513 1513 1512 1512 1511 1511 1511 1510
1515 1516 1516 1516 1517 1517 1517 1517 1517 1517 1517 1517 1517 1517 1517 1517 1516 1516 1516 1516 1516 1516 1515 1515 1515 1515 1515 1515 1514 1515 1514 1513 1513 1513 1512 1512 1512 1511 1511 1510 1509 1509 1508
1515 1516 1516 1516 1517 1517 1517 1517 1517 1517 1517 1517 1517 1517 1517 1517 1517 1516 1516 1516 1516 1516 1515 1515 1515 1515 1514 1514 1514 1514 1514 1513 1513 1512 1512 1511 1511 1510 1509 1508 1508 1507 1507
1514 1515 1515 1516 1516 1517 1517 1517 1517 1517 1517 1517 1517 1517 1517 1517 1517 1516 1516 1516 1516 1515 1515 1515 1515 1514 1514 1514 1513 1513 1513 1512 1512 1511 1510 1510 1510 1509 1508 1507 1506 1506 1505
1513 1514 1514 1515 1515 1516 1516 1517 1517 1517 1517 1517 1517 1517 1517 1517 1517 1516 1516 1516 1515 1515 1514 1514 1514 1514 1514 1513 1513 1512 1512 1511 1511 1510 1509 1508 1508 1507 1506 1506 1505 1504 1503